Вернуться в каталог

SM-3.1

АктивенНаукаSSO
NORAD 67261·PAYLOAD·🇷🇺 Russia
Это название спутника еще не подтверждено официальными источниками.

Запущен Dec 28, 2025 с Vostochny Cosmodrome

Loading…

Ближайшие Пролёты (ближайшие 24 часа)

TLE

СвежийSource: Space-Track

Эпоха: Sep 14, 2026, 03:46 UTC

1 67261U 25313P   26257.15718814  .00013893  00000-0  49337-3 0  9996
2 67261  97.3897 331.5873 0013401  50.5153 309.7270 15.29061863 39567

Отслеживайте SM-3.1 в реальном времени с AllMySat

Download on the App Store